This demonstration page uses our WeatherBlox Daily Observations layout. Learn more.

Left ArrowRight Arrow

36.19886, -115.1175

Hourly Observations for May 3, 2019

Temp ( °F °C ) Dew Point ( °F °C ) Humidity (%) Winds ( mph kmh ) Pressure ( in mb ) Visibility ( mi km ) Precip ( " mm )
12:53 am 00:53 Clear 65 18.3 39 3.9 39 39 NNW 6 9 29.93 1013 10 16 0.00 0.00
1:53 am 01:53 Clear 64 17.8 37 2.8 37 37 WNW 6 9 29.91 1013 10 16 0.00 0.00
2:53 am 02:53 Clear 61 16.1 39 3.9 44 44 NNW 3 6 29.91 1013 10 16 0.00 0.00
3:53 am 03:53 Clear 61 16.1 37 2.8 41 41 NNW 5 7 29.92 1013 10 16 0.00 0.00
4:53 am 04:53 Clear 60 15.6 38 3.3 44 44 N 5 7 29.92 1013 10 16 0.00 0.00
5:53 am 05:53 Sunny 60 15.6 37 2.8 42 42 NNW 3 6 29.93 1014 10 16 0.00 0.00
6:53 am 06:53 Sunny 62 16.7 36 2.2 38 38 SSW 3 6 29.96 1015 10 16 0.00 0.00
7:53 am 07:53 Sunny 66 18.9 34 1.1 30 30 Calm 29.96 1015 10 16 0.00 0.00
8:53 am 08:53 Sunny 70 21.1 32 0 25 25 NNW 3 6 29.97 1015 10 16 0.00 0.00
9:53 am 09:53 Sunny 74 23.3 30 -1.1 20 20 Calm 29.97 1015 10 16 0.00 0.00
10:53 am 10:53 Sunny 77 25 29 -1.7 17 17 E 6 9 29.98 1015 10 16 0.00 0.00
11:53 am 11:53 Sunny 79 26.1 26 -3.3 14 14 SE 7 11 29.95 1014 10 16 0.00 0.00
12:53 pm 12:53 Sunny 82 27.8 24 -4.4 12 12 SSE 9 15 29.92 1013 10 16 0.00 0.00
1:53 pm 13:53 Sunny 83 28.3 21 -6.1 10 10 SSE 8 13 29.90 1013 10 16 0.00 0.00
2:53 pm 14:53 Sunny 83 28.3 20 -6.7 10 10 S 8 13 29.88 1012 10 16 0.00 0.00
3:53 pm 15:53 Sunny 83 28.3 21 -6.1 10 10 E 7 11 29.85 1011 10 16 0.00 0.00
4:53 pm 16:53 Sunny 83 28.3 20 -6.7 10 10 ESE 5 7 29.83 1010 10 16 0.00 0.00
5:53 pm 17:53 Sunny 83 28.3 21 -6.1 10 10 ESE 7 11 29.81 1010 10 16 0.00 0.00
6:53 pm 18:53 Sunny 83 28.3 20 -6.7 10 10 E 8 13 29.80 1009 10 16 0.00 0.00
7:53 pm 19:53 Clear 79 26.1 22 -5.6 12 12 E 3 6 29.82 1010 10 16 0.00 0.00
8:53 pm 20:53 Clear 79 26.1 23 -5 12 12 Calm 29.83 1010 10 16 0.00 0.00
9:53 pm 21:53 Clear 74 23.3 30 -1.1 20 20 NW 5 7 29.84 1011 10 16 0.00 0.00
10:53 pm 22:53 Clear 72 22.2 34 1.1 25 25 WNW 6 9 29.84 1010 10 16 0.00 0.00
11:53 pm 23:53 Clear 69 20.6 33 0.6 26 26 WNW 6 9 29.83 1010 10 16 0.00 0.00

Powered by AerisWeather